STARLINK-34518, 64480

Orbit data source: Space-Track

STARLINK-34518, 64480 is a payload satellite owned by SpaceX/Seattle (US) in LEO that was launched on Mon, 23 Jun 2025 UTC via an FALCON 9 launch vehicle from the Air Force Eastern Test Range (AFETR). Payload-class satellites include a variety of spacecraft equipped with specific instruments for various scientific and technological missions. These include communications satellites like Starlink; space stations such as the ISS; scientific satellites like the Hubble; Earth observation satellites from companies like Planet Labs, Umbra, and HawkEye 360; GPS; miniature CubeSats for education and research; and military/defense satellites.

Loading next visibility...
Identifier
64480, 2025-133J
Orbit
LEO
Country
Flag of USUS
Related business
Manufacturer
SpaceX/Seattle
Mission
Operational Commercial Communications
Bus & Motor
STARLINK V2MO, Unknown motor
Mass
575 kg wet, ~530 kg dry
Launch date (UTC)
2025-06-23 (1 year ago)
Launch vehicle
FALCON 9
Launch site
Air Force Eastern Test Range (AFETR)
Object type
Payload
Rocket body
Debris
Shape & HBR
Box + 2 Pan, 17.7 m
Radar Cross Section
36.964 m², Large (>1 m²)

Expand to show TLE details & history
Last TLE update: 22 hours ago

TLE from 22 hours ago
0 STARLINK-34518
1 64480U 25133J   26170.92324352  .00016024  00000-0  55171-3 0  9997
2 64480  53.1630   1.7343 0000912  80.0229 280.0875 15.30215920 56686
Epoch: 2026-06-19T22:09Z
TLE epoch observation values (Epoch: 2026-06-19T22:09:28.240Z)
Latitude
0.00002°
Longitude
121.22139°
Altitude
475.958 km
Speed
7.629 km/s
True Right ascension
00h 06m 56s
True Declination
0° 00' 00"
Sunlit
Object was in daylight at epoch
Visualization orbit readout
Latitude
Unknown
Longitude
Unknown
Altitude
Unknown
Speed
Unknown
Apparent Right ascension
Unknown
Apparent Declination
Unknown
Sunlit
N/A
Visualization observer readout
Local Sidereal Time
07:20:28
Azimuth
Unknown
Elevation
Unknown
Doppler factor
Unknown
Orbital elements
Apogee altitude
476.049 km
Perigee altitude
474.798 km
Semi-major axis
6,853.56 km
Eccentricity
0.00009
Inclination
53.163°
RAAN
1.7343°
Arg. of periapsis
80.0229°
True anomaly
280.07721°
Mean anomaly
280.0875°
Eccentric anomaly
280.08236°
Mean motion
3.82533 °/min
Orbital period
94.11 mins
BSTAR
0.00055171
Loading maneuver chart data...
Computing Atmospheric mass density...
Loading historical data...
Loading historical data...
Loading historical data...
Loading historical data...
Loading historical data...
Loading historical data...
Loading historical data...

Documentation

Showing up to 5 results
|